Regional Weather Roundup
Issued by NWS Cleveland, OH

Home | Current Version | Previous Version | Graphics & Text | Print | Product List | Glossary On
Versions: 1 2 3 4 5 6 7 8 9 10 11 12 13 14 15 16 17 18 19 20 21 22 23 24 25 26 27 28 29 30 31 32 33 34 35 36 37 38 39 40 41 42 43 44 45 46 47 48 49 50
406
ASUS41 KCLE 230012
RWRCLE
OHIO REGIONAL WEATHER ROUNDUP
NATIONAL WEATHER SERVICE WILMINGTON, OH
700 PM EST WED FEB 22 2017

NOTE: "FAIR" INDICATES FEW OR NO CLOUDS BELOW 12,000 FEET WITH NO
SIGNIFICANT WEATHER AND/OR OBSTRUCTIONS TO VISIBILITY.

OHZ001>008-015>018-024>027-034-035-043-044-230100-
   NORTHWEST OHIO

CITY           SKY/WX    TMP DP  RH WIND       PRES   REMARKS
DEFIANCE       CLOUDY    59  52  77 S6        29.76R
FINDLAY        CLOUDY    60  53  77 S10       29.77S
TOLEDO EXPRESS CLOUDY    60  55  83 S6        29.76R
TOLEDO EXEC    CLOUDY    60  55  83 S8        29.77S
LIMA           CLOUDY    59  55  87 S9        29.78S
$$

OHZ009>014-019>023-028>033-038-089-230100-
   NORTHEAST OHIO

CITY           SKY/WX    TMP DP  RH WIND       PRES   REMARKS
CLE-HOPKINS    CLOUDY    61  52  72 S9        29.82F
CLE-LAKEFRONT  CLOUDY    61  52  72 S8        29.79S
CUY CO. ARPT   CLOUDY    61  54  77 S14       29.81
LORAIN-ELYRIA  CLOUDY    58  51  78 S9        29.81R
ASHTABULA      CLOUDY    57  54  89 S3        29.82S
AKRON-CANTON   CLOUDY    57  51  80 S7        29.84R
WOOSTER        CLOUDY    56  52  86 S6        29.83S
MANSFIELD      CLOUDY    56  53  90 S10       29.82S
YOUNGSTOWN     MOCLDY    56  53  90 S3        29.84S
$$

OHZ042-051>053-060>062-070>072-077>081-230100-
  SOUTHWEST OHIO

CITY           SKY/WX    TMP DP  RH WIND       PRES   REMARKS
CINC-COVINGTON MOCLDY    61  57  87 SE6       29.80S
CINC-LUNKEN    MOCLDY    60  58  92 CALM      29.81S
HAMILTON       CLOUDY    62  58  86 CALM      29.81S
DAYTON         CLOUDY    59  55  87 CALM      29.82R
WRIGHT-PAT AFB NOT AVBL
DAYTON GENERAL CLOUDY    60  56  86 SE7       29.80S
WILMINGTON     CLOUDY    58  55  90 SE8       29.81S
$$

OHZ036-037-039>041-045>050-054>059-063>069-073>076-082>088-230100-
  CENTRAL AND SOUTHEAST OHIO

CITY           SKY/WX    TMP DP  RH WIND       PRES   REMARKS
COLUMBUS       CLOUDY    59  54  83 S7        29.83R
OSU AIRPORT    CLOUDY    57  56  96 S6        29.83R
BOLTON FIELD   CLOUDY    55  55 100 S5        29.84R
RICKENBACK AFB CLOUDY    57  55  91 S7        29.83S
NEWARK         CLOUDY    58  53  84 SW7       29.84R
MARION         CLOUDY    57  53  86 S9        29.82S
LANCASTER      CLOUDY    59  54  83 S5        29.85R
ZANESVILLE     CLOUDY    57  52  83 S8        29.85R
NEW PHILLY     CLOUDY    58  52  80 S5        29.85R
$$




USA.gov is the U.S. government's official web portal to all federal, state and local government web resources and services.